Location: Góry Miechowskie
(50.3599°N, 20.1803°E)
Time: 06:39:29
(UTC+00:00)

Courier 1B - Pass Details

Date: 13 September 2024
Orbit: 962 x 1208 km, 28.3° (Epoch: 12 October)

Event Time Altitude Azimuth Distance (km) Brightness Sun altitude
Rises 14:59:08 0° 226° (SW) 4,007 11.8 17.8°
Reaches altitude 10° 15:03:52 10° 201° (SSW) 3,090 10.7 17.0°
Maximum altitude 15:06:57 13° 177° (S) 2,900 10.2 16.6°
Drops below altitude 10° 15:10:05 10° 153° (SSE) 3,129 10.1 16.1°
Sets 15:14:56 0° 127° (SE) 4,105 10.4 15.3°
